Wind_Speed
54 53 52 51 51 50 50 48 47 45 44 42 41 39 37 35 33 32 32 33 34 33 32 31 30 30 30 30 29 28 26 24 25 26 26 26 26 25 24 23 22 21 19 19 19 19 19 19 19 18 19 19 20 20 20 20 20 20 19 18 17 17 17 17 18 18 16 14 12 11 11 12 12 11 11 11 11 10 9 10 11 13 13 14 14
55 54 53 52 52 51 50 49 48 47 45 44 43 41 39 36 34 33 33 33 34 34 33 32 32 32 31 31 30 29 28 26 26 27 28 28 27 27 26 25 24 23 22 21 21 21 21 20 20 19 20 20 21 21 21 21 21 21 20 20 19 19 19 19 19 19 18 15 13 12 12 12 11 10 10 11 10 10 10 11 12 12 13 14 15
55 54 54 53 52 51 50 49 48 48 47 46 45 43 40 38 36 35 34 33 34 35 35 34 33 33 33 32 31 31 30 28 28 28 28 29 29 28 28 27 26 25 24 23 23 22 22 21 21 21 21 21 22 22 22 22 21 21 20 20 19 18 18 18 19 18 18 16 14 13 12 12 11 10 11 11 10 10 11 11 11 13 15 16 17
55 55 54 54 52 52 51 50 49 49 48 47 46 44 41 39 37 36 35 34 34 35 35 35 35 35 35 34 33 33 32 30 30 30 29 30 30 29 29 28 27 27 26 25 24 24 23 23 22 22 23 23 23 22 22 22 21 20 20 20 19 18 17 17 18 18 17 17 15 14 13 13 12 12 12 11 10 11 12 11 13 15 17 18 19
55 55 55 54 53 53 52 51 51 50 49 47 46 44 42 40 38 37 36 35 35 36 36 37 36 36 36 35 35 34 34 32 32 31 30 30 30 30 30 29 29 28 27 27 26 26 25 24 23 23 24 24 25 24 22 22 21 20 20 20 20 19 18 18 18 17 17 18 17 15 15 15 14 13 13 12 12 12 12 13 15 17 18 20 21
55 55 55 54 53 53 52 52 51 50 49 47 46 44 43 41 40 38 37 36 36 37 37 38 38 38 37 36 35 35 35 34 34 32 31 30 30 30 30 30 29 29 29 28 28 27 26 26 25 24 24 25 25 25 23 23 22 21 20 20 20 20 20 20 19 18 18 18 18 17 17 17 16 15 14 14 14 14 14 15 16 17 19 21 22
55 55 54 54 54 54 53 53 52 51 49 47 45 44 43 42 41 39 37 37 37 38 39 39 39 38 38 37 36 36 35 36 35 33 32 31 31 30 30 30 30 29 30 30 29 28 27 26 26 26 26 25 25 25 24 24 23 22 21 20 20 20 21 21 20 19 19 20 20 20 19 17 17 16 15 15 15 16 16 17 19 19 20 22 23
54 54 54 54 54 54 53 53 51 50 48 46 45 44 43 43 41 39 38 38 38 39 39 40 39 39 39 38 37 37 36 37 36 35 33 32 31 30 29 29 29 30 31 31 30 30 28 27 27 27 27 26 25 25 25 24 24 24 23 22 21 21 21 21 21 20 20 21 21 21 20 19 18 17 16 15 15 16 16 18 21 23 23 24 24
54 54 55 55 55 54 53 53 52 50 49 47 45 44 44 42 41 40 39 39 39 39 40 40 40 40 40 39 39 38 38 38 37 35 33 32 31 30 29 29 30 30 31 31 31 31 29 29 29 28 27 27 26 26 25 24 24 24 24 23 22 21 20 20 21 20 20 21 22 22 21 20 19 17 17 16 16 18 18 18 21 24 26 26 25
53 54 55 55 54 53 53 53 52 51 50 48 46 45 44 43 41 40 40 40 40 40 40 40 41 42 41 40 40 40 40 39 37 35 33 32 31 30 29 29 30 30 31 31 31 30 29 30 30 30 30 29 28 27 26 25 24 24 24 24 23 21 20 20 20 20 20 21 22 21 21 21 19 18 18 19 20 21 20 20 22 24 25 26 25
53 54 55 54 53 53 53 53 53 52 51 49 47 46 45 43 42 41 41 41 41 41 41 42 42 43 43 42 41 41 41 39 36 34 33 32 31 29 29 29 29 30 30 30 29 28 28 29 30 31 34 33 29 27 26 24 24 23 23 23 23 22 20 20 20 20 20 22 21 20 20 21 20 19 21 22 23 22 20 21 24 25 24 25 26
54 54 54 53 53 53 53 53 53 52 51 49 48 46 46 44 43 42 42 42 42 43 43 43 43 44 44 43 43 43 42 39 36 34 33 32 30 29 28 28 29 29 29 27 26 26 26 27 28 30 35 35 30 27 27 24 22 22 23 23 23 22 21 20 20 21 20 20 20 20 21 21 21 22 23 24 25 24 21 21 24 25 24 23 24
53 54 54 53 53 53 53 53 53 53 52 50 49 48 47 46 45 44 44 43 43 44 44 44 44 45 45 45 45 44 43 40 37 35 34 31 30 29 28 28 28 29 27 24 23 23 25 28 29 30 35 36 29 25 26 25 21 20 21 22 22 23 22 21 21 21 20 20 22 22 22 23 23 23 24 26 27 25 22 22 23 25 23 21 21
53 54 53 53 53 52 52 53 53 53 52 51 50 50 49 48 47 45 44 44 45 46 46 45 45 45 46 45 45 45 43 40 38 37 34 32 30 29 27 28 29 27 25 23 23 24 28 30 28 28 32 33 28 24 23 23 22 20 20 21 22 23 24 22 21 21 21 21 22 23 23 23 23 23 24 26 25 23 22 22 23 23 22 20 20
52 53 53 52 52 52 52 53 53 53 52 51 51 51 51 50 49 47 47 47 47 46 46 46 46 46 46 45 46 46 44 41 39 37 35 33 31 29 28 29 28 26 26 27 26 27 30 29 27 27 29 28 26 22 18 18 20 20 18 19 21 22 23 22 20 21 21 20 21 22 24 23 22 22 23 22 20 20 21 22 21 21 20 20 20
51 51 51 52 52 52 52 52 52 52 51 51 51 51 51 51 50 49 48 48 48 48 47 47 47 47 46 46 46 46 44 42 40 38 35 34 32 30 29 28 25 25 28 30 28 28 29 27 26 27 27 26 24 18 14 15 18 17 16 17 18 21 21 20 19 19 18 18 20 23 25 24 21 18 17 17 17 19 20 20 19 18 19 19 20
48 49 50 51 51 51 51 51 51 51 51 51 51 51 51 51 50 49 49 49 50 50 50 49 48 48 47 47 47 46 44 42 40 38 36 36 34 31 29 26 24 26 29 30 29 28 26 25 25 25 25 25 21 14 11 13 16 15 15 16 18 19 20 19 17 16 16 18 21 22 22 20 17 14 14 16 17 17 17 17 17 17 18 20 20
46 47 49 50 50 50 50 50 51 51 51 51 51 50 50 50 50 49 49 49 50 50 50 49 49 49 49 48 47 46 44 42 40 38 37 37 35 31 27 25 25 27 29 29 28 27 25 24 23 23 23 21 17 13 12 14 15 15 15 16 18 19 18 17 15 15 17 19 19 17 16 14 13 13 13 14 15 15 15 16 16 17 18 18 17
45 45 46 47 48 48 48 49 49 50 51 51 50 49 49 49 49 48 48 49 49 49 49 50 51 51 50 50 48 47 45 42 40 39 39 38 34 30 27 27 28 28 28 28 27 25 24 22 21 21 20 18 15 13 13 14 16 15 14 16 18 17 15 13 14 16 17 16 15 13 12 12 13 13 13 13 13 14 15 16 16 16 15 14 14
43 43 44 44 46 47 47 48 49 49 49 48 48 48 49 49 49 48 47 48 48 48 49 50 51 52 52 51 50 48 46 44 42 41 40 37 33 29 27 28 28 28 27 26 24 24 22 20 20 21 19 17 15 13 12 14 15 15 15 17 17 14 11 12 13 14 14 13 13 13 12 12 13 14 14 14 14 15 15 15 14 13 12 12 12
41 41 42 43 44 45 47 48 49 48 46 46 47 47 48 49 49 49 48 47 47 48 48 50 51 52 52 51 50 50 48 45 44 42 40 37 32 29 28 27 27 26 24 23 23 22 21 19 20 20 19 18 17 14 12 14 15 15 16 17 14 11 11 12 13 13 13 12 12 13 13 13 13 14 14 14 13 13 14 13 12 11 10 11 12
38 39 40 42 43 45 46 48 49 49 47 48 48 48 47 48 49 50 50 49 48 47 48 49 50 51 51 51 51 50 48 47 46 43 40 36 32 29 27 26 25 24 23 23 22 20 18 18 18 17 16 16 16 14 14 15 16 17 17 16 13 12 13 14 14 14 13 12 12 13 13 12 13 13 13 11 11 11 11 10 10 9 9 11 12
34 36 38 40 42 44 45 46 48 49 48 49 50 49 48 49 50 52 53 53 51 49 49 49 50 50 50 50 50 49 48 48 47 44 39 34 30 28 26 24 24 24 23 22 21 18 17 17 16 14 13 13 14 15 16 16 17 18 17 15 14 15 16 16 16 15 13 13 13 12 12 12 12 12 10 9 9 9 8 8 9 9 10 12 14
31 33 36 38 40 42 43 45 46 47 47 48 50 50 50 50 51 53 55 55 55 53 52 51 50 50 50 50 50 49 48 48 46 42 37 32 29 26 26 26 26 24 22 20 18 17 17 16 14 13 12 13 15 16 16 17 18 17 16 15 17 18 18 17 16 14 13 13 13 12 11 12 11 10 9 8 7 7 7 8 9 10 12 14 15
27 30 32 35 37 39 41 44 45 46 46 48 49 51 53 53 53 54 55 56 56 56 54 52 51 51 51 52 50 48 48 48 45 41 36 32 28 26 27 27 26 23 21 20 18 17 16 16 14 14 14 15 17 18 17 17 17 16 16 17 18 19 19 17 15 13 13 13 12 12 11 11 10 9 9 8 8 8 8 9 11 13 14 15 16
20 24 27 30 33 36 39 42 44 46 47 49 50 52 54 54 55 55 54 54 54 54 54 53 52 52 52 52 51 50 48 47 44 40 36 32 30 29 28 27 24 22 21 20 18 17 17 17 17 17 17 17 18 18 18 17 17 17 17 18 19 19 17 16 14 13 12 12 12 11 10 10 10 10 10 10 10 11 11 12 13 14 16 17 18
16 19 22 25 28 32 36 40 42 45 47 49 51 52 53 53 54 55 54 54 55 56 56 56 55 55 54 53 53 52 50 47 43 40 37 34 32 31 30 27 25 25 24 22 21 20 20 19 18 18 18 19 19 18 18 17 18 18 18 18 17 15 14 14 13 13 12 12 11 10 10 10 10 11 11 12 13 14 14 14 15 15 16 18 19
16 17 19 22 24 28 33 38 41 44 47 49 51 53 53 54 55 57 58 59 60 59 58 57 57 56 55 54 53 52 51 48 45 41 38 37 36 34 32 30 29 27 26 26 24 23 22 21 20 21 21 21 21 20 18 18 18 17 17 16 15 14 14 14 13 13 12 11 10 10 10 11 11 12 13 14 15 16 16 17 17 17 17 18 20
17 17 16 18 20 23 28 32 37 41 45 48 50 52 54 55 57 59 61 62 63 62 60 59 59 58 56 54 54 53 51 48 45 41 38 37 37 35 32 31 29 27 27 27 26 25 24 23 22 22 22 22 21 20 18 18 18 18 17 16 16 15 14 14 13 12 11 11 11 11 12 12 13 15 16 16 17 18 18 18 17 17 17 18 21
21 20 19 18 18 20 23 27 31 36 40 45 48 51 53 54 57 60 62 62 64 64 62 60 59 58 57 56 53 50 48 44 41 39 38 37 35 33 29 27 26 26 26 27 26 25 25 25 24 23 23 22 21 19 19 19 18 17 17 16 15 15 14 14 13 12 12 12 12 13 13 15 16 17 17 18 18 19 19 18 17 17 18 20 22
20 21 21 20 19 19 20 23 26 30 34 39 43 47 52 55 57 60 62 64 65 66 65 63 62 60 58 55 52 48 42 37 37 38 39 38 35 31 26 23 23 24 26 27 27 26 25 25 25 24 22 21 20 19 20 19 17 16 15 15 15 15 15 14 12 12 12 12 12 13 15 16 17 18 18 18 18 18 18 17 17 18 20 21 21
11 13 16 17 18 19 20 23 25 28 31 33 35 38 44 52 59 62 64 66 67 67 66 64 62 62 60 54 48 44 38 34 37 41 40 37 34 29 25 23 22 24 26 27 26 26 25 24 24 24 23 21 20 20 19 18 16 16 15 15 16 16 14 13 12 12 12 12 13 14 15 16 17 18 18 17 17 17 17 16 17 18 20 20 19
13 12 12 13 15 17 19 21 24 27 30 32 33 33 34 41 51 61 66 68 66 65 68 67 63 61 59 50 40 36 35 35 39 40 37 33 31 29 27 25 24 25 27 27 26 25 24 24 23 23 22 22 21 20 19 17 16 15 15 15 16 14 13 12 12 12 12 12 13 14 14 15 15 16 16 17 17 17 17 17 17 18 19 19 19
18 18 17 15 14 15 17 18 18 20 23 25 29 34 35 37 42 48 56 64 65 60 60 65 66 60 54 46 38 35 37 40 39 33 28 28 30 30 30 29 27 26 26 26 25 24 24 24 24 23 23 22 20 18 18 18 17 16 15 16 15 14 13 12 12 12 12 12 13 13 13 13 14 15 17 18 18 17 16 16 17 18 18 19 20
18 19 19 18 17 14 12 12 13 15 18 21 21 22 25 29 34 39 47 58 68 68 57 55 62 60 48 40 40 40 41 41 36 30 29 30 31 31 32 32 31 30 28 26 25 24 24 24 24 24 22 20 19 18 19 18 17 16 16 16 14 13 13 12 12 12 11 11 11 12 13 13 14 15 17 18 17 17 16 16 17 17 17 18 20
19 19 20 21 21 20 18 16 16 17 19 21 22 17 16 21 20 20 26 29 43 66 64 51 50 51 43 38 41 42 39 36 34 33 34 34 31 30 30 31 32 32 31 29 26 25 24 23 22 22 21 20 19 19 19 18 16 16 16 15 14 13 12 12 11 10 10 10 10 11 12 13 15 16 17 18 18 17 16 16 16 17 17 18 18
18 18 19 20 20 20 20 17 16 18 20 21 23 23 24 31 33 21 10 10 4 31 57 59 52 49 47 45 43 41 39 36 35 35 34 31 28 27 27 29 31 31 29 28 28 26 24 23 21 21 21 21 20 19 18 18 17 16 15 14 13 12 12 11 9 9 9 9 10 11 11 13 14 15 16 16 16 15 15 15 15 16 16 16 15
16 16 16 17 17 16 17 15 13 14 16 16 20 24 24 26 33 30 21 23 28 15 30 58 62 55 51 48 44 43 43 41 38 36 33 30 29 29 28 27 27 26 25 26 26 26 25 24 23 23 23 21 19 19 19 19 17 16 14 13 13 12 11 9 8 8 9 9 10 10 11 12 12 12 12 13 14 15 15 15 15 15 15 14 14
14 14 14 14 14 13 13 13 11 11 12 12 15 19 20 21 24 24 21 21 26 26 30 49 56 51 47 46 45 44 42 39 35 33 32 31 30 29 28 26 24 23 24 25 25 25 25 25 25 23 21 19 19 19 19 18 16 14 13 13 12 11 9 8 8 8 8 9 9 10 11 11 10 9 10 13 14 15 16 16 16 15 14 13 13
12 12 12 12 13 12 10 10 9 6 7 9 11 12 15 18 18 17 16 16 18 21 27 35 40 41 40 39 36 34 32 30 28 28 30 31 30 28 27 26 25 23 23 23 23 24 25 24 23 21 20 20 20 20 18 16 14 13 12 11 10 9 8 8 8 8 8 8 8 9 10 10 10 10 11 13 14 15 16 17 16 15 14 13 13
8 9 9 9 11 11 9 8 7 5 4 6 7 9 11 13 13 14 16 17 17 19 20 22 25 27 26 25 24 24 23 23 24 26 28 30 29 28 27 26 24 23 22 22 22 23 23 22 21 21 21 21 20 19 16 15 13 12 11 9 8 8 8 8 8 8 7 8 8 9 10 10 11 12 14 14 15 16 17 17 17 16 15 14 13
6 6 7 8 8 9 8 6 4 3 2 4 5 6 7 8 8 8 11 14 15 15 15 16 17 18 18 19 20 19 19 20 24 28 29 27 26 26 26 25 24 23 22 21 21 21 21 21 21 21 21 21 19 17 15 14 12 10 9 9 8 8 8 8 7 7 8 8 9 10 11 12 13 14 16 16 17 17 18 18 18 17 15 13 13
5 4 3 5 5 6 7 6 4 2 1 1 4 4 4 5 5 5 6 9 11 11 12 13 14 15 16 17 18 18 18 21 24 27 26 24 24 24 24 24 23 22 21 20 20 20 21 21 21 21 20 18 16 14 13 12 11 9 8 8 8 8 8 8 8 8 8 9 10 11 12 14 15 16 18 19 19 19 19 19 19 18 15 13 13
5 4 4 4 4 4 5 6 5 2 1 2 3 4 4 4 4 5 5 6 7 7 8 10 11 13 13 14 16 17 19 21 23 24 23 23 23 23 23 22 22 22 22 21 21 21 21 21 21 20 18 16 14 13 12 10 8 7 7 7 7 8 8 8 8 8 8 9 11 13 15 16 17 18 19 20 20 20 20 20 19 17 14 13 12
7 7 8 7 6 5 5 4 4 2 1 2 2 3 4 4 4 4 5 5 6 6 6 7 8 9 11 14 16 17 18 20 21 21 21 21 20 21 20 20 21 21 22 22 22 21 20 20 20 19 18 17 16 14 12 9 6 5 5 5 6 7 8 7 7 8 9 11 13 15 16 17 18 19 20 20 19 18 18 17 16 15 14 13 12
7 7 8 8 8 8 7 5 4 3 3 3 3 3 4 4 5 5 5 6 7 7 8 8 9 11 14 16 17 19 19 19 18 18 19 19 19 19 19 18 19 20 20 21 21 21 20 19 19 19 18 18 17 14 11 7 5 4 4 5 5 6 7 7 7 8 10 12 14 15 16 18 19 20 21 20 18 16 15 15 15 14 14 13 12
7 7 7 7 8 8 7 6 5 7 7 5 4 3 3 4 5 6 6 7 8 9 10 11 12 14 15 15 15 16 18 19 18 18 19 19 19 18 19 19 20 20 20 20 21 20 20 20 19 18 18 17 15 13 10 6 3 2 3 3 3 4 5 7 8 10 11 13 14 14 16 18 20 20 20 18 16 14 14 14 15 15 14 13 12
7 8 7 7 7 8 7 6 4 6 8 7 7 8 9 9 9 8 8 8 9 11 13 14 14 15 15 13 12 14 17 18 19 19 20 19 19 19 19 19 20 20 21 21 20 20 20 20 20 19 18 16 14 12 9 6 3 1 2 2 2 1 2 4 5 7 9 10 11 12 13 16 17 18 16 14 13 12 13 14 14 14 14 13 11
12 11 10 10 9 9 9 7 6 6 7 7 8 11 12 12 12 11 10 10 11 13 16 16 16 16 16 15 14 15 17 18 19 20 21 20 20 20 20 19 20 20 20 20 20 20 20 20 20 19 17 15 13 11 9 6 4 1 2 4 4 4 3 2 0 2 4 5 6 8 11 13 14 14 13 12 11 11 12 13 14 14 13 12 11
17 15 14 12 12 11 11 11 10 9 8 7 8 9 10 11 12 12 10 9 11 15 17 17 16 16 16 17 18 18 17 18 18 20 20 21 20 20 19 19 20 20 20 20 20 21 21 21 20 19 16 14 12 11 9 7 5 2 1 4 5 6 6 5 4 1 2 4 4 6 7 8 9 10 10 10 11 11 12 13 13 13 13 12 11
16 16 15 15 14 14 13 13 13 13 11 9 8 8 8 9 10 10 8 8 10 13 15 16 18 19 20 19 19 19 18 18 18 19 19 19 19 18 18 18 19 20 20 20 21 21 21 20 19 18 16 14 14 13 10 8 6 4 2 1 5 7 8 8 7 6 3 3 3 3 3 4 5 6 7 8 9 10 11 12 12 12 12 12 11
Wind_Direction
233 234 235 235 236 236 237 237 237 237 237 238 238 239 240 241 242 241 239 238 239 240 239 238 239 241 243 245 246 247 246 245 244 245 245 244 243 241 241 241 243 245 246 245 245 247 249 252 254 254 254 256 257 257 257 257 258 258 258 257 257 260 265 269 274 280 284 286 286 277 266 264 265 265 265 265 270 276 283 294 298 300 303 304 303
233 234 234 235 236 237 237 238 238 238 238 238 239 239 240 241 243 243 242 239 239 240 240 239 239 240 243 245 246 247 247 245 245 246 247 247 246 244 243 242 243 245 247 247 247 247 250 252 254 255 255 256 258 260 260 260 261 262 262 261 261 263 266 270 274 278 282 285 284 279 271 268 266 259 256 257 262 269 277 286 292 300 308 313 314
233 233 233 235 236 236 236 237 238 238 238 239 239 239 240 241 242 244 244 241 239 239 240 240 240 240 242 243 245 246 246 245 245 246 247 249 249 248 247 247 247 247 249 250 251 251 252 253 255 256 256 256 257 260 261 261 261 264 266 266 265 265 265 267 270 274 278 280 279 277 271 265 262 259 256 255 259 269 277 287 301 313 319 322 322
232 232 233 235 235 235 235 236 237 237 238 238 239 240 240 241 242 243 244 243 241 240 240 240 240 240 241 242 243 244 245 244 245 246 247 250 251 251 251 250 250 250 251 253 255 257 257 256 256 257 258 257 256 257 259 262 264 265 268 269 269 268 266 267 268 270 273 275 275 275 271 264 259 258 257 257 263 274 286 302 314 320 324 326 325
230 231 233 233 233 234 235 235 236 237 238 238 239 240 240 240 241 243 244 244 243 240 239 239 240 240 241 241 242 243 243 244 245 246 247 250 252 253 253 253 252 252 253 255 257 260 262 263 263 261 260 258 257 257 258 261 264 266 268 270 271 270 268 268 269 269 271 274 275 274 270 264 260 258 258 262 270 280 293 307 314 318 323 325 324
229 230 231 232 232 234 235 235 236 236 237 238 239 239 240 240 240 241 243 243 243 241 239 239 239 240 240 241 242 243 243 244 245 245 247 250 251 253 254 254 254 254 254 256 258 260 264 267 268 268 265 262 259 259 259 259 261 263 266 269 270 270 269 269 270 272 276 280 279 275 271 267 262 259 259 265 275 284 291 300 306 312 318 321 321
228 229 230 231 232 234 235 236 236 236 237 238 239 240 240 240 240 240 242 242 242 240 239 238 239 240 240 241 242 242 243 243 244 245 246 248 250 252 254 255 256 256 257 258 259 261 263 267 269 271 271 268 264 261 260 259 259 260 262 265 267 267 267 268 268 271 277 280 281 278 275 272 266 263 264 269 274 282 291 300 303 308 314 316 318
228 228 229 230 232 235 236 236 236 236 237 238 239 240 240 240 240 240 241 241 240 239 238 238 238 239 240 241 241 242 243 243 244 244 245 247 249 251 253 256 257 257 258 259 261 263 265 267 269 271 273 273 271 267 263 260 260 260 259 260 262 263 265 266 266 267 271 274 276 275 273 272 268 266 268 270 276 285 295 300 301 305 310 312 314
228 228 228 231 234 235 235 234 235 235 236 237 238 238 238 239 239 240 240 240 239 238 237 237 238 239 240 240 241 242 242 243 243 243 244 246 248 251 253 256 258 259 260 260 262 265 267 269 270 272 273 273 274 272 269 265 261 258 257 256 256 259 262 264 263 262 265 269 271 271 271 271 272 274 275 278 283 288 290 292 295 300 305 307 312
228 228 229 233 235 234 233 233 233 234 235 236 237 237 237 237 237 238 238 239 238 237 237 236 236 238 239 239 241 241 242 242 243 243 244 245 247 251 254 257 259 261 262 263 265 268 270 272 273 274 273 272 273 273 272 270 264 258 255 252 250 253 258 260 260 258 260 265 268 269 270 274 278 281 281 281 281 281 284 290 294 297 302 304 309
229 229 232 235 234 232 232 232 232 233 234 235 236 235 235 235 235 236 236 237 237 237 236 235 235 236 237 238 240 241 242 242 243 243 244 244 246 249 253 257 260 262 265 267 269 271 274 275 276 276 274 272 271 271 272 270 265 257 252 249 247 248 252 254 256 257 259 263 266 269 272 277 281 278 274 274 276 282 292 296 296 297 302 304 306
230 232 234 234 231 231 232 232 232 233 233 234 234 234 234 234 234 234 235 235 236 236 235 234 234 235 237 238 239 241 242 243 243 244 243 244 246 248 252 257 260 263 265 268 271 274 274 272 271 273 275 274 273 273 272 270 265 256 251 248 247 246 248 251 254 257 259 261 264 267 270 273 275 275 274 276 280 287 294 294 295 297 298 299 300
232 234 233 231 230 231 231 231 232 233 233 233 233 233 233 234 233 233 233 234 235 235 234 234 234 235 236 237 239 240 242 243 243 244 244 244 245 247 251 256 259 262 263 265 267 264 258 257 260 267 272 275 278 279 273 270 268 259 250 248 247 245 245 246 249 252 254 258 261 265 271 275 276 278 283 284 284 286 289 290 294 295 293 293 296
232 233 232 231 232 231 230 231 232 232 232 231 231 232 233 234 233 233 233 233 234 234 234 233 233 234 235 237 239 241 242 243 243 243 244 244 245 246 249 252 256 258 257 255 250 245 248 255 261 267 271 275 280 280 272 269 269 261 251 248 246 244 243 243 244 248 252 258 265 274 281 283 283 283 285 283 280 280 284 288 290 290 290 292 293
232 232 231 231 231 230 230 231 231 231 230 230 231 232 233 234 235 234 234 234 234 234 234 234 233 234 235 237 239 241 242 242 243 244 244 245 245 245 246 249 252 252 251 248 244 245 254 263 267 269 270 273 277 273 264 265 268 262 255 251 248 244 243 242 244 249 256 263 273 284 288 286 285 283 280 278 276 278 283 287 288 288 290 290 290
230 231 231 232 232 231 230 230 229 229 229 229 231 232 234 235 235 236 236 236 237 236 236 236 235 235 235 236 238 240 241 242 243 243 244 245 244 243 243 245 246 247 250 252 250 251 257 262 267 269 269 271 274 267 252 256 261 257 253 252 249 244 240 240 244 251 260 271 279 285 287 285 283 278 273 272 275 280 283 285 287 289 289 290 292
232 233 234 234 233 232 230 229 229 229 229 230 232 234 234 235 236 236 237 238 238 238 238 238 238 237 237 237 238 239 240 241 242 242 243 243 242 240 241 240 238 241 249 253 253 256 259 261 264 265 265 268 270 259 245 249 250 247 247 247 244 240 237 239 245 253 264 274 280 284 285 282 278 272 269 272 276 280 282 284 289 291 291 293 295
234 235 236 236 234 233 232 231 230 230 231 233 235 235 235 236 236 237 238 239 240 241 241 241 240 240 239 238 238 240 240 240 241 241 242 242 241 240 239 235 232 237 245 249 252 257 259 259 259 257 257 263 263 249 243 246 242 239 241 241 238 235 234 238 247 257 267 272 276 281 282 279 276 275 275 278 280 281 284 287 290 290 290 292 294
238 239 239 238 235 234 233 232 232 232 233 235 237 236 236 236 236 237 239 241 242 243 243 243 243 242 241 241 240 241 241 241 241 242 242 242 241 239 236 233 231 234 240 245 250 255 255 253 251 248 249 256 257 248 242 239 235 233 232 232 232 230 230 240 252 261 267 268 268 271 275 276 278 281 281 280 280 283 286 288 287 286 286 289 293
243 243 240 237 234 235 235 234 234 235 237 239 239 238 237 237 236 237 239 241 242 243 244 245 244 244 243 243 242 242 242 241 241 242 242 242 241 238 233 231 231 233 238 245 250 252 251 247 242 241 244 248 249 242 233 229 231 231 225 223 222 222 230 245 255 260 262 262 262 264 268 273 278 281 281 282 284 286 286 284 283 283 285 289 291
243 240 238 236 236 237 237 237 237 238 240 241 239 238 238 238 238 238 237 238 240 241 243 245 246 246 245 244 244 243 243 242 242 242 242 241 240 237 232 230 231 235 240 244 247 247 244 238 234 235 240 245 245 236 219 215 224 227 220 213 211 221 240 252 257 260 260 259 261 262 264 271 276 277 280 283 284 283 282 281 283 285 285 287 290
247 244 242 241 240 239 239 240 239 239 239 238 237 237 239 239 239 238 236 235 237 238 240 242 243 244 245 245 245 245 245 244 244 243 242 241 239 235 231 228 230 236 240 240 239 240 237 230 229 235 242 243 239 226 209 209 218 218 209 203 210 231 250 260 262 261 260 260 262 264 268 274 276 277 279 279 276 276 280 283 285 285 286 292 298
253 250 248 246 244 243 242 242 241 239 237 237 237 237 238 237 237 237 235 233 233 234 236 237 238 240 242 243 244 245 245 245 245 244 242 241 238 236 231 229 232 237 238 235 232 231 228 225 226 232 235 227 216 208 203 205 210 208 201 204 221 241 254 261 261 258 257 260 263 266 269 270 271 273 272 270 272 279 285 286 284 286 293 300 306
254 253 252 251 249 247 246 244 243 241 240 239 238 238 238 237 237 236 234 232 231 231 232 232 233 235 237 239 241 243 244 244 245 244 242 239 236 233 230 232 236 235 231 228 226 220 217 218 220 221 217 209 202 199 198 199 200 200 204 216 231 246 255 259 258 255 253 257 262 265 265 265 265 265 264 266 273 280 281 283 285 290 297 303 308
251 251 253 253 252 251 248 246 245 244 243 241 240 240 239 236 235 234 232 229 228 229 229 229 229 231 233 235 237 240 241 241 241 241 239 236 232 229 230 233 232 225 220 218 216 211 209 209 209 207 205 200 195 192 191 193 195 199 210 225 238 250 255 254 251 249 248 253 258 258 256 255 252 253 259 265 269 271 275 282 287 292 297 301 306
257 255 254 254 255 254 251 249 248 247 244 241 240 241 238 234 232 232 230 228 228 228 227 227 228 229 230 231 233 235 236 236 235 235 233 229 225 225 227 226 219 211 210 209 206 203 204 206 205 204 200 195 191 188 188 191 197 205 218 234 246 251 249 243 239 240 244 248 250 248 245 242 243 250 260 265 268 270 274 279 286 292 295 297 302
268 265 261 259 258 256 254 253 250 248 245 241 239 238 236 233 232 230 228 228 228 228 227 226 226 225 226 228 230 232 232 230 229 228 224 221 220 219 215 208 203 201 201 200 200 201 203 204 202 200 195 190 186 187 190 196 205 216 228 238 241 236 229 227 229 236 240 239 236 235 236 237 244 254 262 267 270 273 275 281 288 292 294 297 302
271 270 265 261 259 257 256 256 253 250 247 244 241 238 236 234 232 232 232 231 229 227 226 226 225 225 224 224 225 226 227 227 224 219 214 213 213 209 202 199 200 202 202 200 200 200 202 202 200 196 193 190 189 190 196 205 213 222 228 226 219 215 217 224 229 232 232 229 228 233 238 242 249 257 262 268 271 273 277 285 290 293 295 299 302
280 280 274 266 261 258 258 259 257 256 254 250 247 244 242 239 236 235 236 236 233 231 231 230 229 227 225 224 223 223 224 226 223 215 208 207 207 204 203 206 208 208 206 204 202 202 201 201 201 200 196 193 194 197 202 208 213 215 213 210 210 214 221 224 225 226 227 230 234 237 241 245 251 256 262 267 270 274 279 285 289 294 298 299 299
282 284 284 281 273 267 264 261 261 261 260 257 255 252 248 245 242 240 239 239 238 236 236 237 237 233 228 227 228 228 228 227 224 215 206 202 202 204 207 212 212 207 204 202 203 205 205 202 201 201 199 196 197 200 203 206 209 208 206 208 212 216 217 218 221 226 231 237 242 245 249 252 255 259 263 268 273 277 281 285 291 296 299 297 295
279 279 281 284 283 282 278 272 267 264 260 258 258 256 252 250 247 244 242 241 239 237 235 236 238 236 231 228 228 227 227 226 221 212 202 195 194 196 198 199 201 201 200 199 199 201 203 202 199 197 197 198 199 200 201 203 205 205 206 209 210 210 213 217 224 232 238 246 253 257 260 261 261 263 267 270 274 277 279 284 291 294 294 292 291
305 296 292 290 291 291 291 288 283 275 267 261 259 258 256 253 249 246 244 241 239 236 233 231 231 232 231 229 224 218 216 218 213 204 195 189 188 187 185 185 189 194 198 199 199 198 199 201 199 196 195 196 197 198 200 203 205 207 209 210 209 211 215 222 229 237 245 253 260 263 267 268 268 269 271 273 274 275 278 283 287 287 287 287 288
22 7 346 325 312 305 301 298 295 290 284 276 267 263 264 261 255 249 242 237 234 234 230 226 226 226 223 220 217 212 206 202 197 191 185 184 182 178 176 178 183 189 192 194 195 197 199 199 198 196 195 195 197 199 202 204 207 210 211 211 210 213 219 226 233 241 247 253 258 261 265 268 270 272 274 275 275 276 278 281 282 283 285 286 287
43 37 28 11 348 327 313 307 307 310 313 308 290 278 278 281 275 261 245 233 226 222 220 219 218 218 214 209 207 205 193 183 179 178 179 181 177 172 171 174 178 184 189 192 193 196 198 197 195 193 193 194 198 201 203 206 209 210 209 209 211 216 224 229 235 241 247 252 256 258 259 261 265 270 273 273 275 276 276 278 280 281 282 283 287
51 49 45 38 30 16 356 345 345 349 357 358 338 307 295 297 288 270 254 238 219 205 201 203 204 205 206 202 195 187 177 171 169 171 177 179 175 170 172 174 176 180 186 190 191 192 193 193 191 190 191 194 197 200 203 206 208 207 207 210 214 221 227 231 237 244 252 258 262 262 260 260 264 268 270 271 272 273 274 276 277 277 278 282 288
54 52 49 49 54 56 52 46 41 37 34 31 23 15 10 1 338 288 264 246 207 188 183 184 186 186 185 182 177 171 166 165 165 166 171 175 175 175 178 180 179 181 184 187 187 188 189 191 191 190 191 194 197 201 203 203 204 205 208 213 220 226 231 235 242 251 260 268 271 269 267 268 269 270 271 271 270 270 271 272 271 272 277 283 289
51 48 43 43 50 57 58 58 57 49 43 41 40 40 40 34 27 18 357 5 83 170 171 166 159 156 155 157 161 161 158 159 160 161 166 172 176 180 185 185 184 185 188 190 188 185 186 190 191 191 194 199 201 200 199 199 202 205 209 217 225 231 235 239 248 260 271 277 277 275 272 270 268 267 266 265 265 265 265 265 267 273 280 286 291
46 44 41 37 35 40 43 42 42 43 42 48 50 46 47 48 41 35 36 33 24 43 139 142 139 139 142 147 154 155 152 152 155 159 164 172 176 180 184 187 187 190 194 195 190 186 186 188 190 193 198 203 201 195 195 199 203 206 213 221 227 232 237 245 257 270 277 280 280 276 270 264 260 260 260 260 261 262 261 262 267 276 283 287 291
41 38 36 32 26 28 32 29 29 39 47 55 59 53 52 58 56 48 49 51 41 47 90 115 124 132 140 147 153 152 147 149 155 161 167 173 178 180 183 186 188 191 194 194 190 188 189 191 193 196 198 197 193 191 195 201 205 210 217 223 227 234 242 253 263 271 275 277 275 268 261 256 256 260 262 262 262 261 259 262 270 278 283 287 291
37 36 34 30 23 21 25 26 29 47 59 59 69 76 72 72 80 87 87 84 82 86 96 109 122 134 144 150 151 146 142 147 158 167 172 175 179 182 184 185 184 187 191 192 192 194 197 197 196 194 191 187 188 192 197 202 207 212 217 221 228 239 248 256 263 269 272 273 268 261 255 255 259 264 263 262 262 260 260 264 272 280 285 288 293
19 30 36 37 30 22 18 18 22 39 71 76 79 86 85 82 91 109 115 113 112 113 113 116 126 136 143 144 142 140 143 152 166 177 179 179 181 182 182 180 179 181 186 190 194 198 199 194 190 187 184 184 188 193 197 202 207 210 213 219 230 242 249 255 261 265 269 269 266 262 259 260 265 267 265 262 260 259 261 266 273 280 285 287 292
349 8 28 41 43 34 22 13 11 20 57 100 103 88 78 79 85 101 117 123 123 123 125 127 131 137 142 142 143 150 159 166 174 180 180 180 181 180 177 176 176 178 181 185 188 189 186 182 181 183 184 186 190 193 196 200 203 206 214 225 236 244 250 255 257 261 265 267 264 262 262 265 269 269 264 261 259 260 262 268 274 279 282 284 291
342 330 360 29 43 44 33 19 6 352 342 129 131 120 93 84 88 98 115 125 127 129 135 140 143 146 150 151 155 163 170 175 179 182 181 179 177 175 173 174 174 175 177 178 178 177 176 176 179 182 184 186 188 189 192 195 201 210 224 237 245 250 252 252 253 257 262 263 261 261 265 269 271 268 263 260 260 262 265 270 275 277 278 282 292
13 357 352 357 6 30 37 25 13 2 276 205 172 160 149 136 132 133 135 136 135 135 141 149 153 155 157 160 164 171 178 185 188 186 179 174 172 171 172 173 174 173 173 172 171 173 175 177 178 180 180 180 180 182 187 195 207 225 244 256 261 258 252 248 251 257 260 260 261 264 268 269 268 265 262 261 262 266 269 271 273 273 275 282 293
12 13 11 3 353 355 6 6 3 6 168 192 203 195 180 168 161 157 155 155 156 157 161 165 168 175 183 186 187 189 193 196 191 181 172 169 170 171 173 175 174 174 173 171 171 173 175 178 179 178 176 176 178 183 190 200 216 247 275 285 275 259 247 244 248 250 252 257 263 267 269 268 265 263 263 264 266 268 270 270 270 271 275 283 291
349 353 357 357 354 350 346 337 321 295 248 196 173 185 195 192 185 179 178 181 186 189 192 192 196 203 208 206 202 197 192 187 180 171 168 170 173 173 174 175 176 175 175 173 173 175 177 179 179 178 177 179 183 188 194 204 228 272 299 299 275 252 243 243 246 249 254 262 268 269 268 266 264 263 264 265 265 266 267 268 269 271 276 283 288
357 356 353 348 346 346 346 341 316 292 274 242 199 189 213 221 212 198 191 196 206 210 209 206 207 211 213 211 204 190 177 171 169 169 171 174 176 177 177 177 177 177 177 176 176 178 180 178 177 178 179 182 187 192 199 211 236 289 321 316 276 256 255 257 258 259 262 263 264 263 262 262 262 262 262 261 260 261 263 266 268 272 276 281 284
356 356 355 350 346 347 354 0 341 308 296 274 237 222 225 229 229 219 207 208 216 216 208 201 202 206 207 204 194 178 167 165 168 171 172 175 178 179 179 179 179 180 180 180 180 182 181 178 176 178 181 184 190 197 205 216 227 265 18 13 352 306 288 276 263 255 250 248 247 251 256 258 260 259 258 255 253 256 260 264 269 273 276 278 279
22 14 6 357 348 342 341 341 335 324 318 303 275 256 246 239 237 233 226 226 231 225 210 198 193 195 197 193 184 176 171 172 173 173 173 176 179 180 181 181 182 183 183 183 182 182 180 178 178 180 183 188 196 203 210 219 216 169 58 40 39 43 39 31 6 214 214 219 231 245 254 258 258 257 255 253 252 255 260 265 269 272 273 274 275
37 34 28 18 8 359 350 343 340 337 331 319 305 293 278 263 255 251 248 246 240 228 214 198 183 178 183 186 184 180 179 179 177 175 175 178 181 182 183 183 183 185 186 184 182 180 179 179 182 184 187 194 202 206 211 219 220 203 75 46 44 45 46 48 54 92 187 207 224 237 249 259 263 262 260 258 257 259 263 266 267 268 269 270 273
37 36 34 31 28 24 18 13 11 7 358 345 329 317 302 284 268 259 257 253 233 210 196 183 170 165 170 179 181 178 175 174 173 173 175 178 180 181 182 182 183 184 183 181 179 179 179 180 185 188 192 200 207 209 211 216 221 223 221 64 52 45 41 45 53 64 97 167 198 223 253 274 281 280 276 270 265 265 265 264 264 265 265 268 272
Height
1479 1481 1484 1487 1490 1492 1496 1499 1502 1505 1508 1511 1513 1515 1518 1520 1523 1525 1527 1530 1532 1534 1536 1538 1540 1542 1543 1544 1546 1547 1548 1550 1551 1551 1552 1553 1554 1555 1556 1557 1558 1559 1560 1561 1562 1563 1564 1565 1566 1567 1568 1569 1569 1570 1571 1571 1572 1573 1574 1574 1575 1575 1575 1575 1575 1574 1575 1575 1575 1575 1575 1575 1576 1576 1576 1576 1576 1576 1576 1575 1575 1574 1573 1572 1571
1474 1477 1480 1483 1486 1489 1492 1496 1499 1502 1504 1507 1509 1512 1514 1517 1520 1522 1524 1526 1529 1531 1533 1535 1537 1538 1540 1541 1542 1544 1545 1546 1548 1549 1549 1550 1552 1553 1554 1555 1556 1557 1558 1559 1560 1561 1562 1563 1564 1565 1566 1567 1567 1568 1569 1570 1570 1571 1571 1572 1573 1573 1573 1573 1573 1573 1573 1573 1574 1574 1574 1574 1574 1575 1575 1575 1575 1574 1574 1574 1574 1573 1573 1572 1571
1470 1474 1477 1479 1482 1485 1489 1492 1495 1498 1500 1502 1505 1508 1511 1514 1517 1519 1521 1523 1525 1527 1530 1532 1533 1535 1536 1537 1539 1540 1542 1543 1544 1545 1546 1548 1549 1550 1552 1553 1554 1555 1556 1557 1558 1559 1560 1561 1562 1563 1564 1565 1565 1566 1567 1568 1568 1569 1569 1570 1570 1571 1571 1571 1571 1571 1571 1572 1572 1573 1573 1573 1573 1573 1573 1573 1573 1573 1572 1572 1572 1572 1571 1570 1569
1467 1470 1473 1475 1479 1482 1485 1487 1490 1493 1495 1498 1501 1504 1508 1511 1513 1515 1518 1520 1521 1523 1526 1528 1529 1530 1532 1533 1535 1536 1538 1539 1541 1542 1543 1545 1546 1548 1550 1551 1552 1553 1554 1555 1556 1557 1558 1559 1560 1561 1562 1563 1564 1564 1565 1565 1566 1566 1567 1567 1568 1568 1569 1569 1569 1570 1570 1570 1571 1571 1571 1571 1571 1571 1571 1571 1571 1571 1571 1571 1570 1570 1569 1568 1567
1463 1465 1468 1472 1475 1478 1480 1483 1485 1488 1491 1494 1497 1501 1504 1507 1509 1511 1514 1516 1517 1519 1521 1523 1525 1526 1527 1529 1531 1532 1533 1535 1537 1538 1540 1542 1544 1545 1547 1549 1550 1551 1552 1552 1553 1554 1555 1557 1558 1559 1560 1561 1561 1562 1562 1563 1563 1564 1564 1565 1565 1566 1567 1567 1567 1568 1568 1568 1569 1569 1569 1569 1570 1570 1570 1569 1570 1570 1569 1569 1568 1567 1566 1565 1564
1458 1461 1464 1467 1470 1473 1475 1478 1480 1483 1486 1490 1493 1497 1499 1502 1505 1507 1509 1511 1513 1514 1516 1518 1520 1521 1523 1525 1526 1528 1529 1531 1532 1534 1537 1538 1540 1542 1544 1545 1547 1548 1549 1550 1551 1551 1552 1554 1555 1556 1557 1558 1559 1559 1560 1560 1561 1561 1561 1562 1563 1564 1564 1564 1565 1565 1566 1566 1567 1567 1567 1568 1568 1568 1568 1568 1568 1568 1567 1566 1565 1564 1563 1562 1561
1454 1457 1460 1462 1465 1467 1469 1472 1475 1478 1482 1486 1489 1492 1495 1498 1500 1503 1505 1507 1508 1510 1511 1513 1516 1517 1519 1521 1522 1523 1525 1526 1528 1530 1532 1534 1536 1539 1540 1542 1543 1545 1546 1546 1547 1548 1549 1551 1552 1553 1553 1554 1555 1556 1557 1557 1558 1558 1559 1559 1560 1561 1561 1562 1563 1563 1564 1564 1564 1564 1565 1566 1566 1566 1566 1566 1566 1565 1564 1563 1562 1562 1562 1561 1559
1449 1452 1455 1458 1460 1462 1464 1468 1471 1474 1478 1481 1485 1488 1490 1493 1496 1499 1501 1502 1503 1505 1506 1509 1511 1513 1515 1516 1517 1519 1520 1521 1523 1525 1528 1530 1532 1534 1537 1539 1540 1541 1542 1543 1544 1545 1547 1548 1549 1549 1550 1550 1551 1552 1553 1554 1554 1555 1555 1556 1557 1558 1558 1559 1560 1561 1562 1562 1562 1562 1562 1563 1563 1564 1564 1564 1564 1563 1563 1562 1560 1560 1560 1559 1558
1444 1447 1450 1452 1454 1456 1460 1464 1467 1470 1474 1477 1480 1483 1486 1489 1491 1494 1495 1496 1498 1500 1502 1505 1507 1508 1509 1511 1513 1514 1515 1516 1517 1520 1523 1525 1528 1531 1533 1535 1536 1537 1538 1539 1541 1543 1544 1545 1545 1546 1546 1547 1548 1548 1549 1550 1551 1551 1552 1553 1554 1555 1556 1557 1557 1558 1559 1559 1559 1560 1560 1560 1561 1561 1561 1561 1561 1560 1560 1560 1559 1558 1557 1555 1555
1439 1442 1444 1445 1448 1452 1456 1459 1463 1466 1469 1472 1475 1478 1481 1484 1486 1488 1489 1491 1493 1495 1498 1500 1501 1503 1504 1506 1507 1508 1509 1511 1513 1516 1519 1521 1524 1527 1529 1531 1532 1533 1534 1536 1538 1540 1541 1542 1542 1542 1543 1544 1545 1545 1546 1547 1547 1548 1549 1550 1551 1552 1553 1554 1554 1555 1556 1556 1556 1557 1558 1558 1558 1559 1559 1558 1557 1557 1557 1558 1556 1556 1554 1552 1551
1434 1436 1437 1440 1444 1448 1451 1454 1457 1460 1463 1467 1470 1473 1475 1478 1480 1482 1484 1486 1488 1490 1492 1494 1495 1497 1499 1500 1502 1503 1504 1506 1509 1512 1515 1517 1520 1523 1525 1527 1528 1529 1531 1533 1536 1537 1538 1538 1538 1538 1538 1540 1542 1544 1544 1545 1544 1545 1546 1546 1547 1549 1550 1551 1551 1552 1553 1553 1554 1555 1556 1556 1556 1556 1555 1554 1554 1554 1556 1556 1554 1552 1551 1549 1547
1429 1430 1432 1436 1441 1444 1447 1450 1452 1455 1458 1461 1464 1467 1470 1472 1474 1476 1478 1480 1483 1485 1486 1488 1490 1492 1493 1495 1496 1497 1499 1502 1505 1508 1510 1513 1516 1519 1522 1523 1524 1525 1527 1530 1532 1534 1534 1533 1533 1534 1534 1536 1541 1543 1543 1543 1542 1542 1543 1543 1544 1545 1546 1547 1548 1549 1550 1551 1551 1552 1553 1554 1554 1553 1553 1552 1552 1552 1553 1552 1551 1549 1548 1546 1545
1425 1426 1429 1433 1436 1438 1442 1445 1447 1450 1452 1456 1459 1462 1464 1466 1468 1470 1473 1476 1478 1479 1480 1482 1484 1486 1487 1489 1491 1492 1495 1498 1501 1503 1506 1509 1512 1515 1518 1518 1519 1520 1523 1525 1527 1527 1525 1524 1526 1529 1530 1533 1539 1542 1542 1542 1541 1540 1540 1541 1541 1542 1543 1544 1545 1546 1547 1548 1548 1550 1551 1551 1551 1551 1551 1550 1549 1549 1549 1548 1547 1546 1544 1544 1544
1420 1422 1425 1428 1431 1434 1437 1440 1442 1445 1448 1452 1455 1457 1458 1460 1463 1466 1468 1471 1472 1473 1475 1477 1478 1480 1482 1484 1486 1487 1489 1492 1495 1498 1501 1505 1508 1511 1513 1513 1513 1515 1517 1518 1519 1518 1517 1519 1522 1525 1527 1530 1534 1537 1538 1539 1539 1538 1538 1538 1538 1539 1539 1540 1542 1543 1544 1545 1545 1547 1548 1548 1548 1548 1548 1547 1546 1546 1545 1544 1544 1543 1542 1541 1541
1416 1418 1421 1424 1427 1430 1433 1435 1438 1441 1444 1448 1450 1452 1454 1456 1459 1462 1464 1465 1466 1468 1470 1471 1473 1474 1476 1479 1481 1482 1484 1487 1490 1493 1496 1500 1504 1507 1507 1507 1508 1510 1511 1512 1512 1512 1514 1517 1520 1522 1523 1525 1529 1531 1532 1534 1535 1535 1535 1535 1535 1536 1536 1538 1539 1540 1541 1542 1542 1543 1543 1543 1544 1544 1544 1543 1543 1542 1542 1541 1540 1540 1539 1539 1539
1412 1415 1418 1420 1423 1425 1428 1431 1435 1438 1441 1444 1446 1448 1450 1452 1455 1458 1460 1462 1463 1464 1466 1467 1468 1470 1472 1474 1475 1476 1478 1481 1484 1488 1492 1495 1499 1501 1501 1502 1504 1505 1506 1506 1508 1509 1510 1513 1516 1517 1519 1521 1525 1526 1527 1529 1531 1531 1531 1531 1532 1533 1533 1535 1537 1538 1539 1539 1540 1540 1539 1539 1540 1541 1540 1540 1540 1540 1539 1538 1538 1538 1537 1537 1536
1408 1411 1413 1415 1418 1421 1424 1428 1431 1434 1437 1439 1441 1443 1446 1448 1451 1454 1456 1458 1459 1460 1462 1463 1465 1466 1468 1469 1469 1470 1473 1476 1479 1483 1487 1490 1493 1495 1496 1499 1500 1501 1501 1502 1503 1505 1507 1509 1511 1513 1515 1517 1520 1522 1523 1525 1526 1527 1527 1528 1529 1530 1530 1532 1534 1536 1537 1537 1537 1537 1536 1536 1537 1537 1538 1537 1537 1537 1537 1536 1536 1535 1534 1534 1533
1404 1407 1408 1411 1414 1417 1421 1424 1426 1429 1431 1433 1435 1437 1441 1444 1447 1450 1452 1454 1455 1457 1459 1461 1462 1462 1463 1464 1464 1466 1469 1472 1475 1479 1482 1484 1487 1490 1493 1495 1496 1497 1497 1499 1500 1502 1504 1506 1507 1509 1510 1513 1516 1518 1519 1521 1522 1522 1524 1525 1526 1527 1528 1530 1532 1534 1534 1534 1534 1534 1533 1533 1534 1534 1534 1534 1534 1534 1534 1534 1534 1533 1532 1531 1530
1400 1402 1404 1407 1411 1414 1417 1420 1422 1425 1427 1428 1431 1434 1436 1439 1442 1445 1448 1449 1451 1454 1456 1457 1458 1458 1458 1460 1461 1463 1465 1468 1471 1474 1476 1479 1482 1486 1489 1490 1491 1493 1494 1495 1497 1499 1500 1502 1503 1505 1507 1509 1512 1514 1515 1517 1518 1519 1521 1522 1523 1525 1526 1528 1530 1531 1531 1531 1531 1531 1531 1531 1531 1532 1532 1532 1532 1532 1532 1532 1531 1530 1530 1529 1528
1397 1400 1403 1406 1409 1411 1413 1415 1417 1420 1421 1423 1426 1429 1432 1434 1437 1439 1442 1444 1446 1449 1450 1452 1452 1453 1454 1456 1457 1459 1461 1463 1466 1469 1472 1475 1478 1482 1485 1485 1487 1489 1490 1492 1493 1495 1497 1498 1499 1501 1503 1505 1507 1510 1512 1514 1515 1516 1518 1519 1520 1523 1524 1526 1527 1528 1528 1528 1528 1529 1529 1529 1529 1529 1529 1530 1530 1530 1529 1529 1529 1528 1527 1527 1527
1397 1400 1402 1405 1406 1408 1409 1410 1412 1414 1416 1418 1421 1423 1425 1428 1430 1431 1434 1436 1438 1441 1443 1445 1446 1447 1449 1452 1453 1455 1457 1460 1462 1465 1468 1471 1475 1478 1480 1481 1483 1486 1487 1489 1491 1492 1493 1495 1497 1498 1500 1501 1503 1506 1508 1510 1512 1513 1515 1517 1518 1521 1522 1523 1524 1525 1525 1525 1526 1526 1526 1526 1526 1526 1527 1527 1527 1527 1527 1527 1526 1526 1526 1525 1525
1396 1398 1400 1401 1402 1404 1405 1406 1407 1410 1412 1414 1416 1417 1418 1421 1423 1425 1426 1428 1429 1431 1434 1437 1439 1441 1444 1446 1448 1451 1454 1456 1458 1461 1464 1468 1471 1474 1476 1478 1481 1483 1484 1486 1488 1489 1491 1492 1494 1495 1496 1498 1500 1502 1504 1507 1508 1511 1513 1515 1517 1519 1520 1521 1521 1522 1522 1523 1523 1523 1523 1523 1523 1523 1524 1525 1525 1525 1525 1525 1524 1524 1524 1524 1524
1394 1395 1397 1398 1399 1400 1401 1402 1404 1406 1409 1411 1411 1412 1413 1415 1416 1418 1420 1421 1421 1423 1425 1428 1431 1435 1437 1440 1442 1445 1449 1451 1454 1457 1461 1465 1468 1470 1473 1476 1478 1479 1481 1483 1485 1487 1488 1490 1491 1493 1494 1495 1496 1499 1501 1503 1506 1508 1511 1513 1515 1516 1517 1518 1518 1519 1519 1520 1520 1521 1521 1521 1521 1521 1522 1523 1523 1523 1523 1523 1523 1523 1522 1522 1522
1391 1392 1393 1394 1396 1397 1397 1399 1400 1401 1404 1406 1408 1409 1409 1410 1411 1412 1413 1414 1414 1415 1416 1419 1423 1426 1429 1432 1435 1439 1442 1445 1449 1454 1458 1461 1464 1466 1469 1471 1474 1476 1478 1480 1482 1484 1485 1487 1489 1490 1491 1492 1493 1496 1498 1501 1503 1506 1508 1510 1512 1514 1514 1515 1515 1516 1516 1517 1518 1518 1518 1518 1519 1519 1520 1521 1521 1521 1521 1521 1521 1521 1520 1520 1520
1387 1388 1390 1391 1392 1394 1395 1396 1396 1397 1398 1399 1401 1401 1402 1403 1404 1406 1408 1409 1409 1409 1410 1412 1415 1418 1421 1424 1426 1430 1434 1438 1443 1449 1453 1456 1459 1462 1464 1467 1469 1472 1474 1476 1479 1481 1482 1484 1486 1487 1488 1490 1491 1493 1496 1498 1501 1504 1506 1508 1509 1511 1511 1512 1513 1513 1514 1515 1515 1516 1516 1517 1517 1518 1518 1519 1519 1520 1520 1520 1519 1519 1518 1518 1518
1384 1385 1386 1387 1389 1390 1391 1392 1392 1392 1393 1393 1394 1394 1395 1396 1397 1399 1402 1406 1408 1409 1408 1407 1409 1411 1414 1416 1419 1422 1426 1430 1436 1441 1447 1451 1454 1457 1460 1462 1465 1467 1470 1473 1476 1478 1480 1481 1482 1484 1486 1487 1488 1491 1494 1496 1499 1502 1504 1506 1507 1508 1509 1510 1510 1511 1512 1513 1514 1514 1515 1515 1516 1516 1517 1517 1518 1518 1518 1518 1518 1517 1516 1516 1516
1381 1382 1383 1383 1385 1386 1387 1388 1388 1389 1390 1390 1390 1391 1392 1393 1394 1395 1397 1399 1401 1403 1403 1401 1400 1401 1404 1408 1412 1415 1418 1422 1428 1434 1439 1444 1448 1451 1454 1457 1460 1463 1466 1469 1472 1474 1476 1478 1480 1482 1484 1484 1486 1489 1492 1494 1497 1499 1501 1503 1504 1506 1507 1508 1508 1510 1511 1511 1512 1513 1513 1514 1514 1515 1515 1516 1516 1516 1516 1516 1516 1515 1515 1514 1513
1378 1379 1380 1381 1381 1382 1383 1384 1385 1385 1385 1385 1385 1385 1385 1386 1387 1387 1387 1387 1388 1391 1394 1396 1394 1393 1395 1400 1405 1410 1413 1416 1419 1424 1430 1436 1441 1445 1449 1452 1455 1458 1461 1465 1468 1470 1473 1475 1477 1479 1481 1483 1484 1487 1490 1492 1495 1497 1499 1501 1502 1504 1505 1506 1507 1508 1509 1510 1510 1511 1511 1512 1512 1513 1513 1514 1514 1514 1514 1514 1513 1513 1512 1511 1510
1375 1376 1377 1378 1379 1379 1380 1381 1382 1383 1382 1382 1381 1380 1379 1379 1379 1378 1378 1378 1378 1380 1384 1387 1389 1389 1391 1394 1397 1401 1406 1410 1414 1418 1423 1429 1434 1439 1444 1447 1450 1454 1458 1461 1464 1467 1469 1471 1473 1476 1478 1481 1483 1485 1488 1490 1492 1494 1496 1498 1500 1501 1502 1504 1505 1506 1507 1507 1508 1509 1509 1510 1510 1511 1511 1511 1512 1511 1511 1511 1510 1510 1510 1509 1508
1372 1372 1373 1374 1375 1376 1377 1377 1378 1379 1379 1379 1378 1376 1376 1376 1375 1373 1372 1372 1373 1373 1374 1376 1378 1381 1384 1387 1391 1396 1399 1405 1412 1417 1420 1424 1429 1435 1439 1443 1446 1450 1454 1458 1461 1464 1466 1468 1470 1473 1476 1478 1481 1484 1486 1488 1490 1492 1494 1496 1497 1499 1500 1502 1503 1504 1504 1505 1505 1506 1507 1507 1508 1508 1509 1509 1509 1509 1508 1508 1507 1507 1507 1506 1505
1370 1369 1370 1370 1371 1372 1373 1373 1374 1374 1375 1375 1374 1373 1372 1371 1369 1369 1368 1367 1366 1367 1368 1370 1372 1374 1376 1379 1385 1393 1397 1402 1409 1415 1418 1420 1424 1429 1434 1438 1442 1446 1451 1455 1458 1460 1463 1465 1466 1469 1473 1476 1479 1482 1484 1486 1488 1489 1491 1493 1494 1496 1498 1500 1501 1501 1502 1502 1503 1503 1504 1505 1505 1505 1506 1506 1506 1506 1506 1505 1504 1504 1504 1503 1502
1368 1368 1368 1368 1368 1369 1369 1369 1370 1370 1370 1370 1370 1370 1368 1366 1362 1361 1360 1359 1359 1358 1360 1363 1367 1369 1371 1374 1381 1388 1393 1398 1405 1411 1415 1417 1420 1424 1428 1433 1438 1444 1449 1452 1455 1457 1460 1463 1464 1466 1470 1474 1477 1480 1482 1484 1486 1487 1488 1490 1492 1494 1496 1498 1498 1499 1499 1500 1500 1501 1501 1502 1502 1502 1503 1503 1504 1504 1503 1502 1502 1501 1501 1500 1499
1368 1368 1368 1368 1367 1367 1367 1368 1368 1368 1367 1367 1366 1365 1364 1361 1357 1354 1351 1350 1351 1351 1351 1354 1359 1364 1366 1371 1379 1384 1388 1394 1403 1409 1413 1416 1417 1419 1423 1429 1436 1442 1446 1449 1452 1454 1458 1461 1463 1465 1468 1471 1474 1477 1480 1482 1483 1485 1486 1488 1491 1493 1494 1495 1496 1496 1497 1497 1497 1498 1498 1499 1499 1500 1500 1501 1501 1501 1500 1500 1499 1498 1498 1497 1496
1369 1369 1368 1368 1368 1367 1367 1367 1367 1367 1366 1364 1362 1360 1359 1357 1355 1351 1347 1343 1340 1341 1343 1344 1348 1356 1362 1367 1375 1380 1383 1389 1399 1406 1412 1417 1417 1415 1419 1427 1434 1440 1444 1446 1448 1451 1455 1458 1461 1463 1466 1469 1472 1475 1477 1479 1481 1483 1484 1487 1489 1491 1492 1493 1493 1494 1494 1494 1495 1495 1496 1496 1496 1497 1498 1498 1498 1498 1497 1497 1496 1496 1495 1494 1493
1371 1370 1370 1369 1368 1367 1367 1367 1367 1367 1365 1361 1358 1356 1354 1353 1351 1348 1344 1337 1325 1322 1331 1338 1340 1347 1358 1366 1371 1376 1381 1385 1390 1397 1408 1416 1416 1414 1417 1425 1430 1435 1440 1443 1446 1449 1453 1456 1459 1461 1464 1467 1470 1473 1475 1477 1479 1481 1483 1485 1487 1489 1490 1490 1491 1491 1491 1491 1492 1492 1493 1493 1494 1494 1495 1495 1495 1495 1494 1494 1493 1493 1493 1492 1491
1373 1372 1371 1370 1369 1368 1368 1368 1368 1366 1364 1361 1359 1356 1352 1350 1348 1343 1341 1333 1315 1302 1313 1331 1338 1342 1354 1365 1371 1374 1379 1384 1387 1392 1402 1411 1414 1414 1418 1424 1428 1432 1436 1439 1443 1447 1451 1454 1457 1460 1463 1465 1468 1471 1473 1475 1477 1479 1481 1483 1485 1486 1487 1488 1488 1488 1488 1488 1489 1489 1490 1491 1491 1492 1492 1493 1493 1492 1492 1491 1491 1491 1490 1489 1488
1374 1373 1373 1372 1371 1370 1370 1369 1368 1367 1364 1362 1361 1358 1352 1348 1347 1345 1344 1340 1326 1310 1307 1317 1329 1338 1350 1363 1371 1374 1378 1383 1388 1393 1400 1407 1411 1415 1419 1423 1426 1430 1434 1437 1441 1445 1448 1452 1455 1458 1460 1463 1466 1468 1471 1473 1475 1477 1479 1482 1483 1484 1485 1485 1485 1485 1485 1485 1486 1487 1488 1488 1489 1489 1490 1490 1490 1490 1489 1489 1489 1489 1488 1486 1485
1376 1375 1374 1374 1373 1372 1372 1371 1370 1369 1367 1364 1361 1359 1355 1349 1348 1351 1352 1348 1343 1332 1316 1310 1321 1338 1351 1363 1372 1375 1376 1381 1387 1393 1398 1405 1410 1414 1418 1421 1424 1427 1432 1436 1439 1442 1445 1449 1452 1456 1458 1461 1464 1466 1469 1471 1473 1476 1478 1480 1481 1482 1482 1482 1482 1482 1482 1483 1484 1485 1485 1486 1487 1487 1488 1488 1488 1488 1487 1487 1487 1486 1485 1484 1483
1378 1377 1376 1375 1374 1374 1373 1372 1371 1370 1369 1367 1362 1360 1359 1355 1352 1357 1360 1358 1356 1352 1339 1327 1333 1349 1362 1371 1377 1375 1372 1378 1387 1393 1398 1404 1409 1412 1416 1419 1422 1425 1429 1433 1436 1439 1443 1447 1450 1453 1456 1459 1462 1465 1467 1469 1472 1474 1476 1478 1479 1480 1479 1479 1479 1479 1479 1480 1481 1483 1483 1484 1485 1486 1486 1486 1486 1486 1485 1485 1485 1484 1483 1482 1480
1380 1379 1378 1376 1376 1375 1374 1374 1373 1372 1371 1370 1367 1364 1364 1363 1361 1363 1367 1368 1368 1368 1365 1359 1360 1369 1375 1379 1378 1373 1372 1379 1389 1395 1399 1404 1408 1411 1415 1417 1420 1423 1427 1431 1434 1438 1442 1445 1448 1451 1455 1458 1461 1463 1466 1468 1470 1473 1475 1476 1477 1477 1476 1476 1476 1476 1477 1478 1479 1481 1482 1482 1483 1484 1484 1484 1484 1484 1483 1483 1483 1482 1481 1479 1478
1382 1381 1380 1378 1377 1377 1375 1374 1374 1374 1373 1373 1372 1370 1369 1369 1369 1370 1371 1372 1372 1374 1375 1375 1376 1380 1381 1379 1377 1375 1377 1383 1391 1397 1401 1404 1407 1411 1414 1416 1419 1422 1425 1429 1432 1436 1440 1443 1447 1450 1453 1457 1460 1462 1464 1467 1469 1471 1473 1473 1474 1474 1473 1473 1473 1474 1474 1475 1477 1478 1480 1481 1482 1482 1483 1483 1482 1482 1481 1481 1481 1480 1479 1477 1475
1383 1382 1381 1380 1379 1378 1377 1375 1375 1375 1375 1374 1374 1374 1373 1373 1373 1374 1373 1373 1374 1375 1377 1377 1378 1379 1379 1378 1378 1380 1383 1387 1392 1397 1401 1404 1407 1410 1413 1416 1418 1421 1425 1428 1431 1435 1439 1442 1445 1449 1452 1456 1458 1461 1463 1465 1467 1469 1470 1471 1471 1471 1471 1471 1471 1471 1472 1473 1475 1476 1478 1479 1480 1481 1481 1481 1480 1480 1479 1479 1479 1478 1476 1475 1473
1384 1383 1383 1382 1380 1379 1378 1377 1376 1376 1376 1375 1375 1375 1375 1375 1375 1375 1375 1374 1375 1375 1376 1377 1377 1377 1378 1379 1380 1382 1385 1389 1393 1398 1401 1404 1407 1410 1413 1415 1418 1421 1424 1428 1431 1435 1438 1441 1445 1448 1452 1455 1457 1460 1462 1464 1465 1467 1467 1468 1468 1468 1468 1468 1468 1468 1469 1471 1473 1474 1476 1477 1478 1479 1479 1479 1478 1478 1477 1477 1477 1476 1474 1473 1471
1384 1384 1383 1383 1382 1381 1379 1379 1378 1377 1377 1376 1376 1375 1375 1375 1376 1376 1376 1376 1376 1376 1376 1377 1377 1378 1379 1380 1382 1384 1387 1391 1395 1398 1402 1405 1408 1410 1413 1416 1418 1421 1424 1427 1431 1435 1438 1441 1444 1448 1451 1454 1457 1459 1461 1462 1463 1464 1465 1465 1465 1465 1465 1465 1465 1466 1467 1469 1470 1472 1474 1475 1476 1477 1477 1477 1476 1475 1475 1474 1474 1474 1472 1471 1469
1385 1384 1384 1383 1382 1381 1380 1379 1379 1378 1378 1377 1377 1376 1376 1376 1376 1376 1376 1376 1376 1377 1377 1378 1379 1380 1381 1382 1384 1387 1391 1394 1397 1400 1403 1406 1409 1411 1414 1416 1419 1421 1424 1427 1431 1434 1437 1441 1444 1446 1449 1452 1455 1457 1459 1460 1461 1462 1462 1462 1462 1462 1462 1462 1462 1463 1464 1466 1468 1470 1472 1473 1474 1475 1475 1475 1474 1473 1472 1472 1472 1472 1470 1469 1467
1385 1384 1384 1383 1382 1381 1381 1380 1380 1379 1379 1378 1377 1377 1377 1377 1377 1377 1378 1378 1378 1379 1379 1380 1381 1382 1383 1385 1387 1390 1394 1397 1400 1403 1405 1408 1411 1413 1415 1418 1420 1423 1425 1428 1431 1434 1437 1440 1443 1446 1448 1451 1454 1456 1457 1458 1458 1459 1459 1459 1459 1460 1460 1460 1460 1460 1462 1464 1466 1468 1469 1471 1472 1473 1473 1472 1471 1470 1470 1470 1470 1470 1469 1467 1465
1386 1385 1384 1383 1382 1381 1380 1380 1380 1379 1379 1380 1379 1378 1378 1378 1378 1379 1379 1380 1380 1381 1381 1382 1383 1385 1386 1388 1391 1394 1396 1399 1402 1404 1407 1410 1412 1414 1417 1419 1421 1423 1426 1429 1431 1434 1437 1440 1443 1445 1448 1450 1452 1454 1455 1455 1456 1457 1457 1457 1457 1457 1457 1457 1457 1458 1459 1461 1463 1465 1467 1469 1470 1470 1470 1469 1468 1468 1468 1468 1468 1468 1467 1465 1464
1386 1385 1384 1383 1382 1382 1381 1380 1379 1379 1380 1381 1381 1380 1379 1379 1379 1380 1381 1381 1382 1383 1383 1384 1385 1386 1388 1390 1394 1397 1399 1400 1403 1406 1408 1411 1413 1416 1418 1420 1422 1424 1426 1429 1432 1434 1437 1440 1442 1445 1447 1449 1451 1452 1453 1454 1454 1454 1455 1455 1455 1455 1455 1455 1455 1455 1457 1459 1461 1464 1466 1467 1468 1468 1467 1466 1466 1465 1466 1466 1467 1466 1465 1464 1462
1387 1386 1385 1384 1383 1382 1381 1380 1380 1379 1379 1380 1380 1379 1379 1379 1380 1381 1382 1383 1383 1384 1385 1385 1386 1387 1389 1392 1395 1397 1399 1401 1403 1406 1409 1411 1414 1416 1418 1420 1422 1424 1427 1429 1432 1434 1437 1440 1442 1444 1446 1448 1449 1450 1451 1452 1453 1453 1453 1454 1454 1454 1453 1453 1453 1454 1455 1457 1460 1462 1464 1465 1466 1466 1465 1464 1463 1463 1464 1464 1465 1465 1464 1463 1461
1388 1387 1386 1385 1384 1383 1382 1381 1380 1380 1379 1379 1379 1379 1379 1379 1380 1382 1383 1383 1384 1384 1385 1386 1387 1388 1391 1393 1396 1398 1400 1402 1404 1407 1409 1411 1414 1416 1418 1420 1422 1424 1427 1429 1432 1434 1437 1439 1441 1444 1446 1447 1448 1449 1450 1451 1451 1452 1452 1453 1453 1453 1452 1452 1452 1453 1454 1456 1459 1461 1463 1464 1464 1464 1462 1461 1461 1461 1462 1463 1463 1463 1462 1461 1460
1389 1388 1387 1386 1385 1384 1383 1383 1382 1381 1381 1380 1380 1380 1380 1380 1380 1381 1382 1382 1383 1384 1385 1386 1387 1389 1392 1395 1397 1399 1401 1403 1405 1408 1410 1412 1414 1416 1418 1420 1422 1424 1426 1429 1431 1434 1436 1438 1440 1443 1444 1446 1447 1448 1449 1450 1450 1451 1451 1452 1452 1451 1451 1451 1452 1452 1454 1456 1458 1461 1462 1463 1463 1462 1461 1460 1459 1459 1460 1461 1461 1462 1461 1460 1458